ROA251 SCEL-SCTE

Flight info

Callsign ROA251
Flight time 1h 29m
Altitude 35000
Route ANGOD6C ANGOD UQ803 ERUKA DCT SARTO SARTO1B
Aircraft A320/M-SDE3FGHIRWY/LB1

Departure

Time 2026-04-17 05:29
Airport Comodoro Arturo Merino Benítez International Airport (SCEL)

Arrival

Time 2026-04-17 06:58
Airport El Tepual International Airport (SCTE)
Time Latitude Longitude Altitude Speed Heading
2026-04-17 04:28 -33.39599 -70.79533 1565 ft 0 kts 176°
2026-04-17 05:14 -33.39588 -70.79534 1564 ft 2 kts 176°
2026-04-17 05:14 -33.39571 -70.79535 1564 ft 2 kts 176°
2026-04-17 05:15 -33.39553 -70.79536 1564 ft 3 kts 166°
2026-04-17 05:15 -33.39537 -70.79545 1564 ft 3 kts 130°
2026-04-17 05:15 -33.39527 -70.79562 1564 ft 2 kts 119°
2026-04-17 05:15 -33.39519 -70.79580 1564 ft 2 kts 119°
2026-04-17 05:16 -33.39513 -70.79599 1564 ft 1 kts 92°
2026-04-17 05:18 -33.39513 -70.79590 1564 ft 4 kts 92°
2026-04-17 05:18 -33.39514 -70.79529 1564 ft 11 kts 87°
2026-04-17 05:19 -33.39510 -70.79419 1564 ft 14 kts 88°
2026-04-17 05:19 -33.39506 -70.79301 1564 ft 14 kts 86°
2026-04-17 05:19 -33.39500 -70.79183 1564 ft 14 kts 86°
2026-04-17 05:19 -33.39497 -70.79067 1564 ft 14 kts 84°
2026-04-17 05:20 -33.39491 -70.78956 1564 ft 9 kts 86°
2026-04-17 05:20 -33.39467 -70.78902 1564 ft 7 kts 23°
2026-04-17 05:20 -33.39410 -70.78897 1564 ft 13 kts 356°
2026-04-17 05:20 -33.39299 -70.78903 1564 ft 16 kts 358°
2026-04-17 05:21 -33.39190 -70.78908 1564 ft 15 kts 358°
2026-04-17 05:21 -33.39096 -70.78912 1564 ft 13 kts 358°
2026-04-17 05:21 -33.39014 -70.78917 1564 ft 11 kts 356°
2026-04-17 05:21 -33.38920 -70.78923 1564 ft 15 kts 358°
2026-04-17 05:22 -33.38823 -70.78927 1564 ft 13 kts 357°
2026-04-17 05:22 -33.38740 -70.78931 1564 ft 11 kts 357°
2026-04-17 05:22 -33.38671 -70.78935 1564 ft 9 kts 358°
2026-04-17 05:22 -33.38612 -70.78937 1564 ft 8 kts 358°
2026-04-17 05:23 -33.38548 -70.78941 1564 ft 10 kts 357°
2026-04-17 05:23 -33.38484 -70.78945 1564 ft 8 kts 357°
2026-04-17 05:23 -33.38432 -70.78948 1564 ft 7 kts 357°
2026-04-17 05:23 -33.38373 -70.78951 1564 ft 11 kts
2026-04-17 05:24 -33.38352 -70.78909 1564 ft 5 kts 90°
2026-04-17 05:24 -33.38344 -70.78866 1564 ft 7 kts 59°
2026-04-17 05:24 -33.38308 -70.78848 1564 ft 5 kts
2026-04-17 05:24 -33.38288 -70.78850 1564 ft 5 kts 355°
2026-04-17 05:25 -33.38226 -70.78855 1564 ft 13 kts 358°
2026-04-17 05:25 -33.38119 -70.78859 1564 ft 15 kts 358°
2026-04-17 05:25 -33.38018 -70.78863 1564 ft 13 kts 358°
2026-04-17 05:25 -33.37932 -70.78868 1565 ft 11 kts 357°
2026-04-17 05:26 -33.37861 -70.78872 1564 ft 10 kts 357°
2026-04-17 05:26 -33.37797 -70.78876 1564 ft 10 kts 357°
2026-04-17 05:26 -33.37714 -70.78881 1564 ft 12 kts 357°
2026-04-17 05:26 -33.37656 -70.78876 1564 ft 7 kts 21°
2026-04-17 05:27 -33.37627 -70.78843 1564 ft 5 kts 64°
2026-04-17 05:27 -33.37624 -70.78792 1564 ft 8 kts 88°
2026-04-17 05:27 -33.37622 -70.78737 1564 ft 6 kts 88°
2026-04-17 05:27 -33.37621 -70.78699 1564 ft 4 kts 94°
2026-04-17 05:28 -33.37631 -70.78674 1564 ft 5 kts 131°
2026-04-17 05:28 -33.37718 -70.78665 1565 ft 32 kts 177°
2026-04-17 05:28 -33.38188 -70.78640 1564 ft 99 kts 177°
2026-04-17 05:28 -33.39066 -70.78590 1564 ft 151 kts 177°
2026-04-17 05:29 -33.40223 -70.78524 1873 ft 169 kts 177°
2026-04-17 05:29 -33.41416 -70.78454 2449 ft 179 kts 177°
2026-04-17 05:29 -33.42747 -70.78376 2770 ft 200 kts 177°
2026-04-17 05:29 -33.44222 -70.78285 3035 ft 225 kts 176°
2026-04-17 05:30 -33.45892 -70.78180 3420 ft 249 kts 177°
2026-04-17 05:30 -33.47690 -70.78069 3955 ft 265 kts 177°
2026-04-17 05:30 -33.49561 -70.77956 4758 ft 271 kts 177°
2026-04-17 05:30 -33.51467 -70.77843 5554 ft 277 kts 177°
2026-04-17 05:31 -33.53412 -70.77761 6345 ft 283 kts 184°
2026-04-17 05:31 -33.55364 -70.78172 7071 ft 288 kts 194°
2026-04-17 05:31 -33.57334 -70.78726 7820 ft 293 kts 194°
2026-04-17 05:31 -33.59334 -70.79292 8568 ft 299 kts 195°
2026-04-17 05:32 -33.61367 -70.79903 9321 ft 304 kts 197°
2026-04-17 05:32 -33.63436 -70.80552 10056 ft 309 kts 197°
2026-04-17 05:32 -33.65563 -70.81231 10458 ft 327 kts 197°
2026-04-17 05:32 -33.67843 -70.81961 10743 ft 349 kts 197°
2026-04-17 05:33 -33.70218 -70.82711 11317 ft 356 kts 197°
2026-04-17 05:33 -33.72628 -70.83462 12044 ft 360 kts 197°
2026-04-17 05:33 -33.75061 -70.84216 12761 ft 363 kts 197°
2026-04-17 05:33 -33.77523 -70.84977 13467 ft 367 kts 197°
2026-04-17 05:34 -33.80071 -70.85768 14150 ft 370 kts 197°
2026-04-17 05:34 -33.82572 -70.86543 14790 ft 372 kts 197°
2026-04-17 05:34 -33.85083 -70.87321 15437 ft 374 kts 198°
2026-04-17 05:34 -33.87605 -70.88105 16058 ft 375 kts 198°
2026-04-17 05:35 -33.90139 -70.88900 16707 ft 377 kts 199°
2026-04-17 05:35 -33.92687 -70.89701 17349 ft 379 kts 199°
2026-04-17 05:35 -33.95244 -70.90504 17978 ft 381 kts 199°
2026-04-17 05:35 -33.97819 -70.91313 18507 ft 384 kts 199°
2026-04-17 05:36 -34.00409 -70.92124 19055 ft 386 kts 199°
2026-04-17 05:36 -34.03021 -70.92924 19612 ft 389 kts 198°
2026-04-17 05:36 -34.05667 -70.93674 20162 ft 391 kts 197°
2026-04-17 05:36 -34.08332 -70.94392 20697 ft 394 kts 197°
2026-04-17 05:37 -34.11014 -70.95097 21226 ft 396 kts 197°
2026-04-17 05:37 -34.13717 -70.95807 21735 ft 398 kts 197°
2026-04-17 05:37 -34.16431 -70.96525 22243 ft 400 kts 197°
2026-04-17 05:37 -34.19160 -70.97256 22728 ft 403 kts 197°
2026-04-17 05:38 -34.21900 -70.97999 23217 ft 405 kts 198°
2026-04-17 05:38 -34.24660 -70.98754 23660 ft 408 kts 197°
2026-04-17 05:38 -34.27439 -70.99518 24042 ft 410 kts 198°
2026-04-17 05:38 -34.30233 -71.00285 24423 ft 413 kts 198°
2026-04-17 05:39 -34.33011 -71.01046 24792 ft 415 kts 198°
2026-04-17 05:39 -34.35834 -71.01821 25164 ft 417 kts 198°
2026-04-17 05:39 -34.38673 -71.02596 25522 ft 420 kts 198°
2026-04-17 05:39 -34.41532 -71.03377 25871 ft 422 kts 198°
2026-04-17 05:40 -34.44405 -71.04160 26206 ft 424 kts 198°
2026-04-17 05:40 -34.47293 -71.04949 26560 ft 426 kts 198°
2026-04-17 05:40 -34.50196 -71.05744 26909 ft 429 kts 198°
2026-04-17 05:40 -34.53117 -71.06542 27252 ft 431 kts 198°
2026-04-17 05:41 -34.56054 -71.07344 27603 ft 433 kts 198°
2026-04-17 05:41 -34.59004 -71.08152 27927 ft 436 kts 198°
2026-04-17 05:41 -34.61971 -71.08970 28270 ft 438 kts 198°
2026-04-17 05:41 -34.64946 -71.09793 28609 ft 440 kts 199°
2026-04-17 05:42 -34.67940 -71.10625 28930 ft 442 kts 199°
2026-04-17 05:42 -34.70942 -71.11459 29259 ft 444 kts 199°
2026-04-17 05:42 -34.73966 -71.12289 29555 ft 446 kts 198°
2026-04-17 05:42 -34.77014 -71.13070 29867 ft 449 kts 197°
2026-04-17 05:43 -34.80082 -71.13811 30158 ft 451 kts 197°
2026-04-17 05:43 -34.83172 -71.14536 30400 ft 453 kts 197°
2026-04-17 05:43 -34.86235 -71.15249 30651 ft 455 kts 197°
2026-04-17 05:43 -34.89345 -71.15982 30910 ft 456 kts 197°
2026-04-17 05:44 -34.92465 -71.16732 31179 ft 457 kts 197°
2026-04-17 05:44 -34.95616 -71.17499 31543 ft 455 kts 197°
2026-04-17 05:44 -34.98719 -71.18259 31899 ft 454 kts 197°
2026-04-17 05:44 -35.01813 -71.19017 32254 ft 453 kts 197°
2026-04-17 05:45 -35.04904 -71.19771 32597 ft 452 kts 197°
2026-04-17 05:45 -35.07990 -71.20524 32941 ft 452 kts 197°
2026-04-17 05:45 -35.11069 -71.21275 33283 ft 451 kts 197°
2026-04-17 05:45 -35.14143 -71.22024 33615 ft 451 kts 197°
2026-04-17 05:46 -35.17220 -71.22775 33945 ft 450 kts 197°
2026-04-17 05:46 -35.20290 -71.23528 34228 ft 450 kts 197°
2026-04-17 05:46 -35.23357 -71.24284 34507 ft 450 kts 197°
2026-04-17 05:46 -35.26427 -71.25043 34757 ft 450 kts 198°
2026-04-17 05:47 -35.29495 -71.25797 34968 ft 450 kts 197°
2026-04-17 05:47 -35.32560 -71.26548 35047 ft 447 kts 197°
2026-04-17 05:47 -35.38635 -71.28037 35061 ft 443 kts 198°
2026-04-17 05:48 -35.44632 -71.29515 35057 ft 443 kts 198°
2026-04-17 05:48 -35.50673 -71.31011 35062 ft 443 kts 198°
2026-04-17 05:49 -35.56717 -71.32505 35057 ft 443 kts 198°
2026-04-17 05:49 -35.62756 -71.34000 35065 ft 442 kts 198°
2026-04-17 05:50 -35.68793 -71.35501 35068 ft 443 kts 198°
2026-04-17 05:50 -35.74828 -71.37001 35075 ft 442 kts 198°
2026-04-17 05:51 -35.80859 -71.38503 35072 ft 442 kts 198°
2026-04-17 05:51 -35.86890 -71.40007 35069 ft 442 kts 199°
2026-04-17 05:52 -35.92910 -71.41511 35070 ft 442 kts 199°
2026-04-17 05:52 -35.98975 -71.43032 35073 ft 442 kts 199°
2026-04-17 05:53 -36.04997 -71.44546 35069 ft 441 kts 199°
2026-04-17 05:53 -36.11024 -71.46052 35071 ft 442 kts 199°
2026-04-17 05:54 -36.17007 -71.47552 35067 ft 442 kts 199°
2026-04-17 05:54 -36.23065 -71.49084 35064 ft 442 kts 199°
2026-04-17 05:55 -36.29048 -71.50602 35056 ft 442 kts 199°
2026-04-17 05:55 -36.35109 -71.52140 35060 ft 442 kts 199°
2026-04-17 05:56 -36.41120 -71.53662 35061 ft 443 kts 199°
2026-04-17 05:56 -36.47147 -71.55180 35072 ft 443 kts 199°
2026-04-17 05:57 -36.53191 -71.56709 35048 ft 444 kts 199°
2026-04-17 05:57 -36.58267 -71.58002 35054 ft 444 kts 199°
2026-04-17 05:58 -36.64293 -71.59546 35048 ft 444 kts 199°
2026-04-17 05:59 -36.73391 -71.61868 35053 ft 444 kts 199°
2026-04-17 05:59 -36.76387 -71.62633 35049 ft 444 kts 198°
2026-04-17 06:00 -36.81294 -71.63427 35054 ft 447 kts 195°
2026-04-17 06:00 -36.87312 -71.65003 35050 ft 441 kts 201°
2026-04-17 06:01 -36.93265 -71.66906 35051 ft 442 kts 200°
2026-04-17 06:01 -36.99276 -71.68600 35044 ft 443 kts 198°
2026-04-17 06:02 -37.05367 -71.70122 35050 ft 444 kts 198°
2026-04-17 06:02 -37.11425 -71.71626 35048 ft 443 kts 198°
2026-04-17 06:03 -37.17467 -71.73178 35055 ft 442 kts 198°
2026-04-17 06:03 -37.23485 -71.74743 35052 ft 441 kts 198°
2026-04-17 06:04 -37.29502 -71.76310 35048 ft 441 kts 198°
2026-04-17 06:04 -37.35516 -71.77870 35048 ft 441 kts 198°
2026-04-17 06:05 -37.41539 -71.79427 35047 ft 441 kts 198°
2026-04-17 06:05 -37.47540 -71.80984 35049 ft 440 kts 198°
2026-04-17 06:06 -37.53537 -71.82561 35049 ft 440 kts 198°
2026-04-17 06:06 -37.59518 -71.84133 35045 ft 439 kts 198°
2026-04-17 06:07 -37.65502 -71.85699 35043 ft 439 kts 197°
2026-04-17 06:07 -37.71482 -71.87264 35044 ft 439 kts 197°
2026-04-17 06:08 -37.77423 -71.88983 35042 ft 437 kts 199°
2026-04-17 06:08 -37.83314 -71.90879 35040 ft 436 kts 200°
2026-04-17 06:09 -37.89163 -71.92764 35038 ft 436 kts 199°
2026-04-17 06:09 -37.95058 -71.94617 35034 ft 436 kts 199°
2026-04-17 06:10 -38.00949 -71.96450 35027 ft 436 kts 199°
2026-04-17 06:10 -38.06839 -71.98295 35028 ft 436 kts 199°
2026-04-17 06:11 -38.12728 -72.00143 35015 ft 435 kts 199°
2026-04-17 06:11 -38.18612 -72.01992 35012 ft 435 kts 199°
2026-04-17 06:12 -38.24489 -72.03842 35018 ft 435 kts 199°
2026-04-17 06:12 -38.30359 -72.05693 35013 ft 435 kts 199°
2026-04-17 06:13 -38.36229 -72.07545 35013 ft 434 kts 199°
2026-04-17 06:13 -38.42094 -72.09407 35019 ft 434 kts 199°
2026-04-17 06:14 -38.47958 -72.11273 35011 ft 434 kts 199°
2026-04-17 06:14 -38.53818 -72.13126 35012 ft 434 kts 199°
2026-04-17 06:15 -38.59638 -72.14979 35007 ft 433 kts 199°
2026-04-17 06:15 -38.65489 -72.16849 35001 ft 433 kts 199°
2026-04-17 06:16 -38.71341 -72.18722 35008 ft 433 kts 199°
2026-04-17 06:16 -38.77190 -72.20595 35010 ft 433 kts 199°
2026-04-17 06:17 -38.83032 -72.22472 35004 ft 433 kts 199°
2026-04-17 06:17 -38.88875 -72.24353 34997 ft 432 kts 199°
2026-04-17 06:18 -38.94712 -72.26243 34995 ft 432 kts 199°
2026-04-17 06:18 -39.00549 -72.28124 34995 ft 432 kts 199°
2026-04-17 06:19 -39.06385 -72.30003 34992 ft 432 kts 199°
2026-04-17 06:19 -39.12180 -72.31868 34994 ft 432 kts 199°
2026-04-17 06:20 -39.18010 -72.33757 34993 ft 432 kts 199°
2026-04-17 06:20 -39.23840 -72.35647 34993 ft 432 kts 199°
2026-04-17 06:21 -39.29673 -72.37541 34993 ft 432 kts 199°
2026-04-17 06:21 -39.35497 -72.39446 34990 ft 431 kts 199°
2026-04-17 06:22 -39.41324 -72.41342 34985 ft 432 kts 199°
2026-04-17 06:22 -39.47151 -72.43235 34982 ft 431 kts 199°
2026-04-17 06:23 -39.52976 -72.45138 34978 ft 432 kts 199°
2026-04-17 06:23 -39.58794 -72.47048 34984 ft 431 kts 199°
2026-04-17 06:24 -39.64581 -72.48946 34980 ft 432 kts 199°
2026-04-17 06:24 -39.70405 -72.50857 34980 ft 432 kts 199°
2026-04-17 06:25 -39.76230 -72.52776 34976 ft 432 kts 200°
2026-04-17 06:25 -39.79141 -72.53728 34749 ft 429 kts 199°
2026-04-17 06:25 -39.82030 -72.54659 34534 ft 426 kts 200°
2026-04-17 06:25 -39.84906 -72.55582 34302 ft 424 kts 200°
2026-04-17 06:26 -39.87762 -72.56494 34066 ft 422 kts 200°
2026-04-17 06:26 -39.90608 -72.57403 33817 ft 420 kts 200°
2026-04-17 06:26 -39.93447 -72.58313 33549 ft 419 kts 200°
2026-04-17 06:26 -39.96273 -72.59222 33280 ft 417 kts 200°
2026-04-17 06:27 -39.99050 -72.60120 33020 ft 416 kts 200°
2026-04-17 06:27 -40.01854 -72.61029 32760 ft 415 kts 200°
2026-04-17 06:27 -40.04647 -72.61937 32477 ft 411 kts 200°
2026-04-17 06:27 -40.07419 -72.62840 31996 ft 409 kts 201°
2026-04-17 06:28 -40.10168 -72.63738 31513 ft 406 kts 201°
2026-04-17 06:28 -40.12903 -72.64630 31040 ft 404 kts 201°
2026-04-17 06:28 -40.15625 -72.65519 30557 ft 402 kts 201°
2026-04-17 06:28 -40.18330 -72.66405 30105 ft 399 kts 201°
2026-04-17 06:29 -40.21017 -72.67282 29604 ft 396 kts 201°
2026-04-17 06:29 -40.23679 -72.68149 29156 ft 392 kts 201°
2026-04-17 06:29 -40.26313 -72.69004 28716 ft 388 kts 201°
2026-04-17 06:29 -40.28917 -72.69848 28297 ft 384 kts 201°
2026-04-17 06:30 -40.31493 -72.70687 27865 ft 379 kts 201°
2026-04-17 06:30 -40.34040 -72.71520 27456 ft 375 kts 201°
2026-04-17 06:30 -40.36566 -72.72347 27037 ft 372 kts 201°
2026-04-17 06:30 -40.39039 -72.73157 26619 ft 369 kts 201°
2026-04-17 06:31 -40.41518 -72.73971 26199 ft 366 kts 201°
2026-04-17 06:31 -40.43950 -72.74771 25772 ft 364 kts 201°
2026-04-17 06:31 -40.46427 -72.75588 25338 ft 361 kts 201°
2026-04-17 06:31 -40.48862 -72.76390 24899 ft 360 kts 201°
2026-04-17 06:32 -40.51250 -72.77177 24453 ft 358 kts 201°
2026-04-17 06:32 -40.53663 -72.77974 24005 ft 357 kts 201°
2026-04-17 06:32 -40.56071 -72.78770 23556 ft 356 kts 201°
2026-04-17 06:32 -40.58506 -72.79575 23047 ft 355 kts 201°
2026-04-17 06:33 -40.60862 -72.80354 22609 ft 352 kts 201°
2026-04-17 06:33 -40.63232 -72.81136 22168 ft 350 kts 201°
2026-04-17 06:33 -40.65594 -72.81915 21736 ft 348 kts 201°
2026-04-17 06:33 -40.67940 -72.82689 21297 ft 346 kts 201°
2026-04-17 06:34 -40.70269 -72.83458 20880 ft 344 kts 201°
2026-04-17 06:34 -40.72587 -72.84225 20457 ft 343 kts 201°
2026-04-17 06:34 -40.74896 -72.84989 20039 ft 341 kts 201°
2026-04-17 06:34 -40.77197 -72.85753 19621 ft 340 kts 201°
2026-04-17 06:35 -40.79490 -72.86515 19201 ft 339 kts 201°
2026-04-17 06:35 -40.81779 -72.87276 18790 ft 339 kts 201°
2026-04-17 06:35 -40.84064 -72.88037 18382 ft 338 kts 200°
2026-04-17 06:35 -40.86316 -72.88785 17942 ft 338 kts 200°
2026-04-17 06:36 -40.88591 -72.89542 17526 ft 336 kts 200°
2026-04-17 06:36 -40.90856 -72.90297 17122 ft 335 kts 200°
2026-04-17 06:36 -40.93108 -72.91049 16733 ft 333 kts 200°
2026-04-17 06:36 -40.95379 -72.91671 16331 ft 337 kts 192°
2026-04-17 06:37 -40.97716 -72.91967 15939 ft 337 kts 191°
2026-04-17 06:37 -41.00046 -72.92254 15547 ft 336 kts 191°
2026-04-17 06:37 -41.02370 -72.92540 15160 ft 336 kts 191°
2026-04-17 06:37 -41.04697 -72.92826 14766 ft 335 kts 191°
2026-04-17 06:38 -41.07021 -72.93112 14378 ft 335 kts 191°
2026-04-17 06:38 -41.09341 -72.93400 13981 ft 335 kts 191°
2026-04-17 06:38 -41.11666 -72.93690 13564 ft 335 kts 191°
2026-04-17 06:38 -41.13985 -72.93978 13157 ft 332 kts 191°
2026-04-17 06:39 -41.16241 -72.94251 12765 ft 320 kts 191°
2026-04-17 06:39 -41.17690 -72.94424 12515 ft 312 kts 191°
2026-04-17 06:39 -41.19813 -72.94680 12140 ft 301 kts 191°
2026-04-17 06:39 -41.22561 -72.95022 11660 ft 299 kts 191°
2026-04-17 06:40 -41.24637 -72.95286 11294 ft 300 kts 191°
2026-04-17 06:40 -41.26716 -72.95539 10915 ft 301 kts 189°
2026-04-17 06:40 -41.28130 -72.95651 10654 ft 302 kts 188°
2026-04-17 06:40 -41.30227 -72.95744 10386 ft 299 kts 186°
2026-04-17 06:41 -41.32310 -72.95794 10023 ft 300 kts 186°
2026-04-17 06:41 -41.34402 -72.95833 9598 ft 302 kts 185°
2026-04-17 06:41 -41.36505 -72.95875 9192 ft 302 kts 185°
2026-04-17 06:41 -41.38611 -72.95929 8746 ft 302 kts 185°
2026-04-17 06:42 -41.40711 -72.95992 8392 ft 300 kts 185°
2026-04-17 06:42 -41.42772 -72.96055 8010 ft 298 kts 185°
2026-04-17 06:42 -41.44876 -72.96125 7561 ft 299 kts 185°
2026-04-17 06:42 -41.46906 -72.96192 7287 ft 294 kts 184°
2026-04-17 06:43 -41.48946 -72.96262 6905 ft 292 kts 184°
2026-04-17 06:43 -41.50961 -72.96332 6313 ft 288 kts 184°
2026-04-17 06:43 -41.52957 -72.96402 5707 ft 283 kts 184°
2026-04-17 06:43 -41.54902 -72.96468 5213 ft 277 kts 183°
2026-04-17 06:44 -41.56834 -72.96531 4796 ft 276 kts 183°
2026-04-17 06:44 -41.58740 -72.96652 4372 ft 274 kts 192°
2026-04-17 06:44 -41.60432 -72.97653 4110 ft 261 kts 221°
2026-04-17 06:44 -41.61507 -72.99485 3969 ft 245 kts 248°
2026-04-17 06:45 -41.61830 -73.01634 3858 ft 231 kts 271°
2026-04-17 06:45 -41.61780 -73.03731 3737 ft 222 kts 272°
2026-04-17 06:45 -41.61737 -73.05782 3638 ft 220 kts 271°
2026-04-17 06:45 -41.61698 -73.07809 3540 ft 214 kts 271°
2026-04-17 06:46 -41.61660 -73.09731 3442 ft 206 kts 271°
2026-04-17 06:46 -41.61623 -73.11601 3365 ft 198 kts 271°
2026-04-17 06:46 -41.61591 -73.13432 3325 ft 196 kts 268°
2026-04-17 06:46 -41.61952 -73.15156 3280 ft 195 kts 236°
2026-04-17 06:47 -41.62984 -73.16293 3240 ft 196 kts 200°
2026-04-17 06:47 -41.64335 -73.16458 3191 ft 199 kts 175°
2026-04-17 06:47 -41.65714 -73.16389 3103 ft 198 kts 182°
2026-04-17 06:47 -41.67092 -73.16449 3015 ft 198 kts 184°
2026-04-17 06:48 -41.68466 -73.16497 3008 ft 198 kts 175°
2026-04-17 06:48 -41.69752 -73.15870 3014 ft 200 kts 142°
2026-04-17 06:48 -41.70555 -73.14373 3016 ft 202 kts 107°
2026-04-17 06:48 -41.70571 -73.12513 3012 ft 203 kts 71°
2026-04-17 06:49 -41.69804 -73.10970 3015 ft 202 kts 37°
2026-04-17 06:49 -41.68534 -73.10255 3014 ft 200 kts
2026-04-17 06:49 -41.67143 -73.10193 3014 ft 200 kts 360°
2026-04-17 06:49 -41.65749 -73.10152 3015 ft 200 kts 360°
2026-04-17 06:50 -41.64356 -73.10110 3013 ft 200 kts 360°
2026-04-17 06:50 -41.62961 -73.10067 3013 ft 201 kts 360°
2026-04-17 06:50 -41.61584 -73.10038 3016 ft 200 kts 355°
2026-04-17 06:50 -41.60289 -73.10604 3002 ft 197 kts 322°
2026-04-17 06:51 -41.59456 -73.12009 3014 ft 195 kts 288°
2026-04-17 06:51 -41.59353 -73.13783 3005 ft 194 kts 255°
2026-04-17 06:51 -41.60002 -73.15334 3009 ft 194 kts 222°
2026-04-17 06:51 -41.61214 -73.16146 3010 ft 196 kts 188°
2026-04-17 06:52 -41.62581 -73.16230 3012 ft 197 kts 182°
2026-04-17 06:52 -41.63946 -73.16107 3010 ft 199 kts 159°
2026-04-17 06:52 -41.64948 -73.14917 3012 ft 201 kts 117°
2026-04-17 06:52 -41.65230 -73.13090 3020 ft 202 kts 84°
2026-04-17 06:53 -41.64782 -73.11400 3028 ft 185 kts 53°
2026-04-17 06:53 -41.63856 -73.10355 3004 ft 168 kts 22°
2026-04-17 06:53 -41.62762 -73.10042 3000 ft 158 kts 359°
2026-04-17 06:53 -41.61670 -73.10013 3005 ft 156 kts 359°
2026-04-17 06:54 -41.60589 -73.09984 3006 ft 155 kts 359°
2026-04-17 06:54 -41.59511 -73.09950 3009 ft 155 kts 359°
2026-04-17 06:54 -41.58429 -73.09913 2915 ft 155 kts 360°
2026-04-17 06:54 -41.57352 -73.09875 2749 ft 154 kts 360°
2026-04-17 06:55 -41.56303 -73.09838 2568 ft 149 kts
2026-04-17 06:55 -41.55278 -73.09801 2364 ft 147 kts
2026-04-17 06:55 -41.54258 -73.09765 2156 ft 146 kts
2026-04-17 06:55 -41.53243 -73.09729 1952 ft 146 kts
2026-04-17 06:56 -41.52228 -73.09692 1763 ft 146 kts
2026-04-17 06:56 -41.51213 -73.09656 1554 ft 145 kts
2026-04-17 06:56 -41.50206 -73.09620 1357 ft 145 kts
2026-04-17 06:56 -41.49200 -73.09585 1159 ft 144 kts
2026-04-17 06:57 -41.48201 -73.09549 953 ft 143 kts
2026-04-17 06:57 -41.47206 -73.09514 756 ft 142 kts
2026-04-17 06:57 -41.46219 -73.09479 572 ft 142 kts
2026-04-17 06:57 -41.45232 -73.09443 371 ft 142 kts
2026-04-17 06:58 -41.44290 -73.09413 286 ft 123 kts
2026-04-17 06:58 -41.43609 -73.09391 300 ft 73 kts
2026-04-17 06:58 -41.43202 -73.09375 307 ft 52 kts
2026-04-17 06:58 -41.42864 -73.09365 307 ft 45 kts
2026-04-17 06:59 -41.42728 -73.09364 306 ft 10 kts 342°
2026-04-17 06:59 -41.42712 -73.09440 305 ft 10 kts 271°
2026-04-17 06:59 -41.42711 -73.09520 302 ft 7 kts 266°
2026-04-17 06:59 -41.42732 -73.09567 302 ft 5 kts 207°
2026-04-17 07:00 -41.42765 -73.09574 301 ft 4 kts 181°
2026-04-17 07:00 -41.42799 -73.09575 301 ft 7 kts 181°
2026-04-17 07:00 -41.42859 -73.09577 301 ft 9 kts 181°
2026-04-17 07:00 -41.42912 -73.09579 303 ft 7 kts 182°
2026-04-17 07:01 -41.42976 -73.09582 301 ft 12 kts 182°
2026-04-17 07:01 -41.43063 -73.09586 301 ft 13 kts 181°
2026-04-17 07:01 -41.43158 -73.09589 302 ft 14 kts 181°
2026-04-17 07:01 -41.43258 -73.09593 305 ft 15 kts 181°
2026-04-17 07:02 -41.43330 -73.09604 301 ft 8 kts 223°
2026-04-17 07:02 -41.43331 -73.09685 301 ft 10 kts 271°
2026-04-17 07:02 -41.43330 -73.09750 303 ft 0 kts 271°